Lexington, NC

1:33 PM EST on February 11, 2016 (GMT -0500)
Davidson County

Weather History for KEXX - January, 2013

Change the Weather History Date:

Sunday, January 13, 2013

  Actual Average (KINT) Record (KINT)
Temperature  
Mean Temperature 60 °F -  
Max Temperature 72 °F 46 °F 73 °F (2005)
Min Temperature 49 °F 30 °F 5 °F (1977)
Degree Days  
Heating Degree Days 5    
Growing Degree Days 10 (Base 50)    
Moisture  
Dew Point 57 °F    
Average Humidity 85    
Maximum Humidity 100    
Minimum Humidity 62    
Precipitation  
Precipitation 0.00 in - - ()
Sea Level Pressure  
Sea Level Pressure 30.08 in    
Wind  
Wind Speed 2 mph (SSW)    
Max Wind Speed 13 mph    
Max Gust Speed 22 mph    
Visibility 7 miles    
Events Fog    
Averages and records for this station are not official NWS values.
T = Trace of Precipitation, MM = Missing Value Source: NWS Daily Summary

Daily Weather History Graph

Daily Weather History Graph

Search for Another Location

Airport or City:

Trip Planner

Search our weather history database for the weather conditions in past years. The results will help you decide how hot, cold, wet, or windy it might be!

Date:

Astronomy

Jan. 13, 2013 Rise Set
Actual Time 7:30 AM EST 5:29 PM EST
Civil Twilight 7:03 AM EST 5:57 PM EST
Nautical Twilight 6:31 AM EST 6:28 PM EST
Astronomical Twilight 6:00 AM EST 6:59 PM EST
Moon 8:34 AM EST (1/13) 7:59 PM EST (1/13)
Length of Visible Light 10h 54m
Length of Day
9h 58m
Waxing Crescent, 5% of the Moon is Illuminated
Jan 13
Waxing Crescent
Jan 18
First Quarter
Jan 26
Full
Feb 3
Last Quarter
Feb 10
New

Hourly Weather History & Observations

Time (EST) Temp. Dew Point Humidity Pressure Visibility Wind Dir Wind Speed Gust Speed Precip Events Conditions
12:15 AM 53.1 °F 53.1 °F 100% 30.09 in 0.8 mi Calm Calm - N/A   Mist
12:35 AM 51.1 °F 51.1 °F 100% 30.09 in 0.5 mi Calm Calm - N/A Fog Fog
12:55 AM 50.7 °F 50.7 °F 100% 30.09 in 1.5 mi Calm Calm - N/A   Mostly Cloudy
1:15 AM 50.4 °F 50.4 °F 100% 30.10 in 1.5 mi Calm Calm - N/A   Mostly Cloudy
1:35 AM 49.5 °F 49.5 °F 100% 30.10 in 4.0 mi Calm Calm - N/A   Clear
1:55 AM 50.9 °F 50.9 °F 100% 30.10 in 5.0 mi Calm Calm - N/A   Clear
2:15 AM 50.9 °F 50.9 °F 100% 30.10 in 1.0 mi Calm Calm - N/A   Mist
2:35 AM 51.4 °F 51.4 °F 100% 30.10 in 0.8 mi Calm Calm - N/A   Mist
2:55 AM 54.5 °F 54.5 °F 100% 30.10 in 2.0 mi Calm Calm - N/A   Clear
3:15 AM 52.9 °F 52.9 °F 100% 30.09 in 5.0 mi Calm Calm - N/A   Scattered Clouds
3:35 AM 53.4 °F 53.4 °F 100% 30.09 in 4.0 mi South 3.5 mph - N/A   Scattered Clouds
3:55 AM 54.9 °F 54.9 °F 100% 30.08 in 5.0 mi Calm Calm - N/A   Scattered Clouds
4:15 AM 54.1 °F 54.1 °F 100% 30.08 in 2.5 mi Calm Calm - N/A   Scattered Clouds
4:35 AM 54.7 °F 54.7 °F 100% 30.08 in 5.0 mi Calm Calm - N/A   Scattered Clouds
4:55 AM 54.7 °F 54.7 °F 100% 30.07 in 4.0 mi Calm Calm - N/A   Scattered Clouds
5:15 AM 54.5 °F 54.5 °F 100% 30.08 in 2.5 mi Calm Calm - N/A   Clear
5:35 AM 54.7 °F 54.7 °F 100% 30.08 in 4.0 mi Calm Calm - N/A   Clear
5:55 AM 54.5 °F 54.5 °F 100% 30.08 in 4.0 mi Calm Calm - N/A   Clear
6:15 AM 54.5 °F 54.5 °F 100% 30.09 in 1.5 mi Calm Calm - N/A   Mist
6:35 AM 54.3 °F 54.3 °F 100% 30.10 in 4.0 mi Calm Calm - N/A   Clear
6:55 AM 53.6 °F 53.6 °F 100% 30.09 in 1.0 mi Calm Calm - N/A   Mist
7:15 AM 53.6 °F 53.6 °F 100% 30.10 in 1.8 mi Calm Calm - N/A   Mist
7:35 AM 53.8 °F 53.8 °F 100% 30.10 in 2.5 mi South 3.5 mph - N/A   Clear
7:55 AM 54.9 °F 54.9 °F 100% 30.11 in 2.5 mi South 3.5 mph - N/A   Clear
8:15 AM 56.3 °F 56.3 °F 100% 30.11 in 4.0 mi South 4.6 mph - N/A   Clear
8:35 AM 56.7 °F 56.7 °F 100% 30.11 in 5.0 mi South 3.5 mph - N/A   Clear
8:55 AM 56.5 °F 56.5 °F 100% 30.13 in 5.0 mi SSW 3.5 mph - N/A   Clear
9:15 AM 57.4 °F 57.4 °F 100% 30.14 in 7.0 mi Calm Calm - N/A   Clear
9:35 AM 58.6 °F 58.6 °F 100% 30.13 in 7.0 mi SSW 3.5 mph - N/A   Clear
9:55 AM 60.3 °F 60.3 °F 100% 30.14 in 10.0 mi SSW 4.6 mph - N/A   Clear
10:15 AM 63.3 °F 61.2 °F 93% 30.13 in 10.0 mi SSW 5.8 mph - N/A   Clear
10:35 AM 64.9 °F 59.7 °F 83% 30.13 in 10.0 mi SSW 5.8 mph - N/A   Clear
10:55 AM 67.3 °F 59.4 °F 76% 30.12 in 10.0 mi SW 5.8 mph - N/A   Clear
11:15 AM 68.0 °F 59.5 °F 74% 30.11 in 10.0 mi SW 6.9 mph - N/A   Clear
11:35 AM 69.1 °F 59.9 °F 72% 30.10 in 10.0 mi SW 6.9 mph - N/A   Clear
11:55 AM 69.8 °F 60.3 °F 72% 30.09 in 10.0 mi SW 11.5 mph 21.9 mph N/A   Scattered Clouds
12:15 PM 70.2 °F 60.3 °F 71% 30.08 in 10.0 mi SW 5.8 mph - N/A   Clear
12:35 PM 69.8 °F 60.1 °F 71% 30.08 in 10.0 mi WSW 6.9 mph 17.3 mph N/A   Scattered Clouds
12:55 PM 71.1 °F 60.1 °F 68% 30.07 in 10.0 mi SSW 8.1 mph - N/A   Scattered Clouds
1:15 PM 69.8 °F 60.1 °F 71% 30.07 in 10.0 mi SSW 9.2 mph - N/A   Scattered Clouds
1:35 PM 71.4 °F 60.1 °F 67% 30.06 in 10.0 mi SSW 9.2 mph - N/A   Clear
1:55 PM 70.5 °F 59.9 °F 69% 30.06 in 10.0 mi SSW 9.2 mph - N/A   Scattered Clouds
2:15 PM 70.7 °F 59.4 °F 67% 30.06 in 10.0 mi SW 10.4 mph 18.4 mph N/A   Clear
2:35 PM 71.1 °F 58.6 °F 65% 30.06 in 10.0 mi SW 6.9 mph - N/A   Clear
2:55 PM 70.7 °F 58.3 °F 65% 30.06 in 10.0 mi SSW 12.7 mph 17.3 mph N/A   Clear
3:15 PM 70.7 °F 58.6 °F 66% 30.06 in 10.0 mi SW 5.8 mph - N/A   Clear
3:35 PM 71.2 °F 58.5 °F 64% 30.06 in 10.0 mi SSW 6.9 mph - N/A   Clear
3:55 PM 71.6 °F 58.1 °F 62% 30.06 in 10.0 mi SSW 6.9 mph - N/A   Clear
4:15 PM 71.6 °F 58.1 °F 62% 30.07 in 10.0 mi South 6.9 mph - N/A   Clear
4:35 PM 70.3 °F 57.2 °F 63% 30.06 in 10.0 mi SSW 6.9 mph - N/A   Clear
4:55 PM 69.4 °F 57.4 °F 65% 30.06 in 10.0 mi South 4.6 mph - N/A   Clear
5:15 PM 68.4 °F 57.4 °F 68% 30.06 in 10.0 mi SSW 4.6 mph - N/A   Clear
5:35 PM 67.1 °F 57.2 °F 70% 30.07 in 10.0 mi SSW 4.6 mph - N/A   Clear
5:55 PM 66.0 °F 57.2 °F 73% 30.07 in 10.0 mi SSW 4.6 mph - N/A   Clear
6:15 PM 65.3 °F 57.2 °F 75% 30.07 in 10.0 mi SSW 3.5 mph - N/A   Clear
6:35 PM 64.8 °F 57.2 °F 76% 30.08 in 10.0 mi South 3.5 mph - N/A   Clear
6:55 PM 64.9 °F 57.2 °F 76% 30.07 in 10.0 mi South 3.5 mph - N/A   Scattered Clouds
7:15 PM 64.6 °F 57.2 °F 77% 30.07 in 10.0 mi South 3.5 mph - N/A   Clear
7:35 PM 64.2 °F 57.2 °F 78% 30.07 in 10.0 mi Calm Calm - N/A   Clear
7:55 PM 63.5 °F 57.2 °F 80% 30.07 in 10.0 mi Calm Calm - N/A   Scattered Clouds
8:15 PM 63.5 °F 57.4 °F 80% 30.07 in 10.0 mi SSW 3.5 mph - N/A   Scattered Clouds
8:35 PM 63.1 °F 57.4 °F 81% 30.06 in 10.0 mi South 4.6 mph - N/A   Clear
8:55 PM 63.5 °F 57.6 °F 81% 30.06 in 10.0 mi Calm Calm - N/A   Clear
9:15 PM 63.0 °F 57.4 °F 82% 30.06 in 10.0 mi South 4.6 mph - N/A   Clear
9:35 PM 63.0 °F 57.6 °F 82% 30.07 in 10.0 mi South 3.5 mph - N/A   Clear
9:55 PM 62.8 °F 57.7 °F 84% 30.06 in 10.0 mi SSE 5.8 mph - N/A   Clear
10:15 PM 62.6 °F 57.7 °F 84% 30.06 in 10.0 mi South 4.6 mph - N/A   Clear
10:35 PM 62.6 °F 57.9 °F 85% 30.08 in 10.0 mi South 4.6 mph - N/A   Clear
10:55 PM 62.4 °F 57.9 °F 85% 30.07 in 10.0 mi South 5.8 mph - N/A   Clear
11:35 PM 62.6 °F 58.1 °F 85% 30.08 in 10.0 mi South 6.9 mph - N/A   Clear
11:55 PM 62.8 °F 58.1 °F 85% 30.08 in 10.0 mi South 6.9 mph - N/A   Clear